SL-16 DEB, 22619

Orbit data source: Space-Track

SL-16 DEB, 22619 is space debris in LEO originally from a launch on Fri, 26 Mar 1993 UTC launched from the Tyuratam Missile And Space Complex (TTMTR). Debris objects in space refer to the collection of defunct objects orbiting the Earth. Examples of debris include non-operational satellites, rocket bodies, and fragments generated from explosions, collisions, or faulty payload assembly.

Loading next visibility...
Identifier
22619, 1993-016AD
Orbit
LEO
Country
Flag of CISCIS
Related business
Manufacturer
Unknown
Mission
Spacecraft
Bus & Motor
Unknown
Mass
Unknown
Launch date (UTC)
1993-03-26 (33 years ago)
Launch vehicle
Unknown
Launch site
Tyuratam Missile And Space Complex (TTMTR)
Object type
Payload
Rocket body
Debris
Shape & HBR
Unknown shape, 0.3 m
Radar Cross Section
Medium (>0.1 m² and <1 m²)

Expand to show TLE details & history
Last TLE update: 18 hours ago

TLE from 18 hours ago
0 SL-16 DEB
1 22619U 93016AD  26254.86695834 -.00000011  00000-0  29699-4 0  9999
2 22619  70.9989  70.9936 0185477  20.4534 103.2790 13.73895968677009
Epoch: 2026-09-11T20:48Z
TLE epoch observation values (Epoch: 2026-09-11T20:48:25.200Z)
Latitude
50.19002°
Longitude
-76.2646°
Altitude
1,026.826 km
Speed
7.327 km/s
True Right ascension
15h 06m 53s
True Declination
50° 01' 37"
Sunlit
Object was in daylight at epoch
Visualization orbit readout
Latitude
Unknown
Longitude
Unknown
Altitude
Unknown
Speed
Unknown
Apparent Right ascension
Unknown
Apparent Declination
Unknown
Sunlit
N/A
Visualization observer readout
Local Sidereal Time
07:41:05
Azimuth
Unknown
Elevation
Unknown
Doppler factor
Unknown
Orbital elements
Apogee altitude
1,120.124 km
Perigee altitude
847.039 km
Semi-major axis
7,361.719 km
Eccentricity
0.01855
Inclination
70.9989°
RAAN
70.9936°
Arg. of periapsis
20.4534°
True anomaly
105.33618°
Mean anomaly
103.279°
Eccentric anomaly
104.30874°
Mean motion
3.43617 °/min
Orbital period
104.77 mins
BSTAR
0.000029699
Loading maneuver chart data...
Computing Atmospheric mass density...
Loading historical data...
Loading historical data...
Loading historical data...
Loading historical data...
Loading historical data...
Loading historical data...
Loading historical data...

Documentation

Showing up to 5 results
|